Time,TemperatureF,DewpointF,PressureIn,WindDirection,WindDirectionDegrees,WindSpeedMPH,WindSpeedGustMPH,Humidity,HourlyPrecipIn,Conditions,Clouds,dailyrainin,SoftwareType,DateUTC
2013-04-27 00:02:00,50.2,49.1,30.15,East,98,0.0,1.0,96,0.00,,,0.00,Wunderground v.1.15,2013-04-27 05:02:00,
2013-04-27 00:07:00,50.3,49.2,30.15,ENE,78,2.0,2.0,96,0.00,,,0.00,Wunderground v.1.15,2013-04-27 05:07:00,
2013-04-27 00:12:00,50.2,49.1,30.14,SSE,150,0.0,2.0,96,0.00,,,0.00,Wunderground v.1.15,2013-04-27 05:12:00,
2013-04-27 00:17:00,50.2,49.1,30.14,ENE,77,1.0,2.0,96,0.00,,,0.00,Wunderground v.1.15,2013-04-27 05:17:00,
2013-04-27 00:23:00,50.2,49.1,30.14,East,86,4.0,4.0,96,0.00,,,0.00,Wunderground v.1.15,2013-04-27 05:23:00,
2013-04-27 00:28:00,50.2,49.1,30.13,ESE,110,2.0,4.0,96,0.00,,,0.00,Wunderground v.1.15,2013-04-27 05:28:00,
2013-04-27 00:33:00,50.3,49.2,30.13,NNE,12,2.0,2.0,96,0.00,,,0.00,Wunderground v.1.15,2013-04-27 05:33:00,
2013-04-27 00:38:00,50.3,49.2,30.13,NE,49,2.0,2.0,96,0.00,,,0.00,Wunderground v.1.15,2013-04-27 05:38:00,
2013-04-27 00:43:00,50.3,49.2,30.13,NNE,30,3.0,3.0,96,0.00,,,0.00,Wunderground v.1.15,2013-04-27 05:43:00,
2013-04-27 00:49:00,50.3,49.2,30.13,ENE,65,1.0,3.0,96,0.00,,,0.01,Wunderground v.1.15,2013-04-27 05:49:00,
2013-04-27 00:54:00,50.3,49.2,30.13,East,89,1.0,2.0,96,0.00,,,0.01,Wunderground v.1.15,2013-04-27 05:54:00,
2013-04-27 00:59:00,50.3,49.2,30.13,East,86,2.0,3.0,96,0.00,,,0.01,Wunderground v.1.15,2013-04-27 05:59:00,
2013-04-27 01:04:00,50.3,49.2,30.12,ENE,64,1.0,2.0,96,0.00,,,0.01,Wunderground v.1.15,2013-04-27 06:04:00,
2013-04-27 01:09:00,50.3,49.2,30.12,East,86,0.0,3.0,96,0.00,,,0.01,Wunderground v.1.15,2013-04-27 06:09:00,
2013-04-27 01:15:00,50.4,49.3,30.13,NNE,25,1.0,2.0,96,0.00,,,0.01,Wunderground v.1.15,2013-04-27 06:15:00,
2013-04-27 01:20:00,50.4,49.3,30.12,ESE,116,2.0,2.0,96,0.00,,,0.01,Wunderground v.1.15,2013-04-27 06:20:00,
2013-04-27 01:25:00,50.3,49.2,30.11,East,85,3.0,5.0,96,0.00,,,0.01,Wunderground v.1.15,2013-04-27 06:25:00,
2013-04-27 01:30:00,50.3,49.2,30.11,NNE,25,1.0,2.0,96,0.00,,,0.01,Wunderground v.1.15,2013-04-27 06:30:00,
2013-04-27 01:35:00,50.4,49.3,30.11,East,98,2.0,2.0,96,0.00,,,0.02,Wunderground v.1.15,2013-04-27 06:35:00,
2013-04-27 01:41:00,50.4,49.3,30.11,ENE,73,1.0,2.0,96,0.00,,,0.02,Wunderground v.1.15,2013-04-27 06:41:00,
2013-04-27 01:46:00,50.4,49.3,30.12,East,91,0.0,2.0,96,0.00,,,0.02,Wunderground v.1.15,2013-04-27 06:46:00,
2013-04-27 01:51:00,50.4,49.3,30.10,East,97,6.0,6.0,96,0.49,,,0.11,Wunderground v.1.15,2013-04-27 06:51:00,
2013-04-27 01:56:00,50.3,49.2,30.08,South,170,2.0,6.0,96,0.18,,,0.13,Wunderground v.1.15,2013-04-27 06:56:00,
2013-04-27 02:01:00,50.3,49.2,30.09,West,266,1.0,3.0,96,0.14,,,0.14,Wunderground v.1.15,2013-04-27 07:01:00,
2013-04-27 02:06:00,50.3,49.2,30.09,ESE,116,0.0,4.0,96,0.07,,,0.15,Wunderground v.1.15,2013-04-27 07:06:00,
2013-04-27 02:11:00,50.4,49.3,30.08,SE,136,0.0,1.0,96,0.07,,,0.15,Wunderground v.1.15,2013-04-27 07:11:00,
2013-04-27 02:16:00,50.4,49.3,30.07,ENE,64,1.0,4.0,96,0.06,,,0.15,Wunderground v.1.15,2013-04-27 07:16:00,
2013-04-27 02:21:00,50.4,49.3,30.07,North,10,3.0,5.0,96,0.06,,,0.16,Wunderground v.1.15,2013-04-27 07:21:00,
2013-04-27 02:26:00,50.4,49.3,30.08,ENE,64,1.0,6.0,96,0.06,,,0.16,Wunderground v.1.15,2013-04-27 07:26:00,
2013-04-27 02:31:00,50.4,49.3,30.10,North,349,2.0,3.0,96,0.04,,,0.16,Wunderground v.1.15,2013-04-27 07:31:00,
2013-04-27 02:36:00,50.4,49.3,30.09,NNE,20,0.0,4.0,96,0.00,,,0.16,Wunderground v.1.15,2013-04-27 07:36:00,
2013-04-27 02:41:00,50.4,49.3,30.09,SE,133,3.0,3.0,96,0.00,,,0.17,Wunderground v.1.15,2013-04-27 07:41:00,
2013-04-27 02:46:00,50.3,49.2,30.08,East,86,2.0,5.0,96,0.00,,,0.17,Wunderground v.1.15,2013-04-27 07:46:00,
2013-04-27 02:51:00,50.2,49.1,30.08,East,98,2.0,3.0,96,0.07,,,0.18,Wunderground v.1.15,2013-04-27 07:51:00,
2013-04-27 02:56:00,50.2,49.1,30.08,East,96,0.0,3.0,96,0.08,,,0.19,Wunderground v.1.15,2013-04-27 07:56:00,
2013-04-27 03:01:00,50.3,49.2,30.07,East,98,0.0,1.0,96,0.23,,,0.21,Wunderground v.1.15,2013-04-27 08:01:00,
2013-04-27 03:06:00,50.3,49.5,30.08,ESE,108,0.0,2.0,97,0.32,,,0.23,Wunderground v.1.15,2013-04-27 08:06:00,
2013-04-27 03:11:00,50.4,49.6,30.09,ENE,60,3.0,4.0,97,0.26,,,0.25,Wunderground v.1.15,2013-04-27 08:11:00,
2013-04-27 03:16:00,50.4,49.6,30.08,East,92,1.0,5.0,97,0.28,,,0.28,Wunderground v.1.15,2013-04-27 08:16:00,
2013-04-27 03:21:00,50.5,49.7,30.07,East,86,1.0,3.0,97,0.24,,,0.30,Wunderground v.1.15,2013-04-27 08:21:00,
2013-04-27 03:26:00,50.5,49.7,30.07,ENE,62,2.0,3.0,97,0.19,,,0.32,Wunderground v.1.15,2013-04-27 08:26:00,
2013-04-27 03:31:00,50.7,49.9,30.06,ESE,115,2.0,2.0,97,0.23,,,0.34,Wunderground v.1.15,2013-04-27 08:31:00,
2013-04-27 03:36:00,50.8,50.0,30.05,East,82,2.0,4.0,97,0.22,,,0.36,Wunderground v.1.15,2013-04-27 08:36:00,
2013-04-27 03:41:00,50.8,50.0,30.05,East,93,1.0,2.0,97,0.30,,,0.38,Wunderground v.1.15,2013-04-27 08:41:00,
2013-04-27 03:46:00,50.8,50.0,30.04,ESE,117,1.0,3.0,97,0.31,,,0.41,Wunderground v.1.15,2013-04-27 08:46:00,
2013-04-27 03:51:00,51.1,50.3,30.02,ESE,112,3.0,3.0,97,0.48,,,0.44,Wunderground v.1.15,2013-04-27 08:51:00,
2013-04-27 03:56:00,51.6,50.8,29.99,East,82,4.0,7.0,97,0.32,,,0.47,Wunderground v.1.15,2013-04-27 08:56:00,
2013-04-27 04:01:00,52.2,51.4,29.97,ESE,104,4.0,4.0,97,0.18,,,0.49,Wunderground v.1.15,2013-04-27 09:01:00,
2013-04-27 04:06:00,52.6,51.8,29.98,NNW,338,0.0,4.0,97,0.19,,,0.50,Wunderground v.1.15,2013-04-27 09:06:00,
2013-04-27 04:11:00,53.0,52.2,29.99,NNE,15,3.0,3.0,97,0.08,,,0.50,Wunderground v.1.15,2013-04-27 09:11:00,
2013-04-27 04:16:00,53.3,52.5,29.99,SE,134,3.0,7.0,97,0.05,,,0.50,Wunderground v.1.15,2013-04-27 09:16:00,
2013-04-27 04:21:00,53.7,52.9,29.99,East,94,2.0,5.0,97,0.00,,,0.50,Wunderground v.1.15,2013-04-27 09:21:00,
2013-04-27 04:26:00,53.0,51.9,29.99,NNW,342,2.0,5.0,96,0.00,,,0.50,Wunderground v.1.15,2013-04-27 09:26:00,
2013-04-27 04:31:00,52.8,51.7,29.99,East,86,2.0,2.0,96,0.00,,,0.50,Wunderground v.1.15,2013-04-27 09:31:00,
2013-04-27 04:36:00,52.9,52.1,29.99,ESE,117,5.0,8.0,97,0.00,,,0.50,Wunderground v.1.15,2013-04-27 09:36:00,
2013-04-27 04:41:00,53.0,52.2,29.99,ESE,103,1.0,3.0,97,0.00,,,0.50,Wunderground v.1.15,2013-04-27 09:41:00,
2013-04-27 04:46:00,52.8,51.7,29.99,ESE,111,0.0,3.0,96,0.00,,,0.50,Wunderground v.1.15,2013-04-27 09:46:00,
2013-04-27 04:51:00,52.5,51.4,30.00,East,90,1.0,1.0,96,0.00,,,0.50,Wunderground v.1.15,2013-04-27 09:51:00,
2013-04-27 04:56:00,52.2,51.1,30.00,ENE,76,1.0,3.0,96,0.00,,,0.50,Wunderground v.1.15,2013-04-27 09:56:00,
2013-04-27 05:01:00,51.9,50.8,29.99,East,89,0.0,1.0,96,0.00,,,0.50,Wunderground v.1.15,2013-04-27 10:01:00,
2013-04-27 05:06:00,51.7,50.6,30.00,SE,138,0.0,2.0,96,0.00,,,0.50,Wunderground v.1.15,2013-04-27 10:06:00,
2013-04-27 05:11:00,51.6,50.5,30.00,WSW,240,0.0,0.0,96,0.00,,,0.50,Wunderground v.1.15,2013-04-27 10:11:00,
2013-04-27 05:16:00,51.5,50.4,30.01,WSW,241,0.0,1.0,96,0.00,,,0.50,Wunderground v.1.15,2013-04-27 10:16:00,
2013-04-27 05:21:00,51.4,50.3,30.01,SW,236,0.0,0.0,96,0.00,,,0.50,Wunderground v.1.15,2013-04-27 10:21:00,
2013-04-27 05:26:00,51.3,50.2,30.01,NNE,17,0.0,2.0,96,0.00,,,0.50,Wunderground v.1.15,2013-04-27 10:26:00,
2013-04-27 05:31:00,51.1,50.0,30.01,NNW,346,0.0,1.0,96,0.00,,,0.50,Wunderground v.1.15,2013-04-27 10:31:00,
2013-04-27 05:36:00,51.0,49.9,30.01,West,264,0.0,1.0,96,0.00,,,0.50,Wunderground v.1.15,2013-04-27 10:36:00,
2013-04-27 05:41:00,50.9,49.8,30.01,West,281,0.0,1.0,96,0.00,,,0.50,Wunderground v.1.15,2013-04-27 10:41:00,
2013-04-27 05:46:00,50.8,49.7,30.02,East,98,1.0,1.0,96,0.00,,,0.50,Wunderground v.1.15,2013-04-27 10:46:00,
2013-04-27 05:51:00,50.6,49.5,30.02,East,98,0.0,1.0,96,0.00,,,0.50,Wunderground v.1.15,2013-04-27 10:51:00,
2013-04-27 05:56:00,50.6,49.5,30.02,East,99,0.0,1.0,96,0.00,,,0.50,Wunderground v.1.15,2013-04-27 10:56:00,
2013-04-27 06:01:00,50.5,49.7,30.03,NNE,25,0.0,0.0,97,0.00,,,0.50,Wunderground v.1.15,2013-04-27 11:01:00,
2013-04-27 06:06:00,50.4,49.3,30.03,NNE,25,0.0,0.0,96,0.00,,,0.50,Wunderground v.1.15,2013-04-27 11:06:00,
2013-04-27 06:11:00,50.4,49.6,30.03,NNE,25,0.0,0.0,97,0.00,,,0.50,Wunderground v.1.15,2013-04-27 11:11:00,
2013-04-27 06:16:00,50.3,49.5,30.03,East,84,0.0,0.0,97,0.00,,,0.50,Wunderground v.1.15,2013-04-27 11:16:00,
2013-04-27 06:21:00,50.3,49.5,30.03,ENE,78,0.0,1.0,97,0.00,,,0.50,Wunderground v.1.15,2013-04-27 11:21:00,
2013-04-27 06:26:00,50.3,49.5,30.03,NNE,30,0.0,2.0,97,0.00,,,0.50,Wunderground v.1.15,2013-04-27 11:26:00,
2013-04-27 06:31:00,50.2,49.4,30.05,NE,37,0.0,0.0,97,0.00,,,0.50,Wunderground v.1.15,2013-04-27 11:31:00,
2013-04-27 06:36:00,50.2,49.4,30.05,NE,37,0.0,0.0,97,0.00,,,0.50,Wunderground v.1.15,2013-04-27 11:36:00,
2013-04-27 06:41:00,50.1,49.3,30.04,ENE,60,0.0,0.0,97,0.00,,,0.50,Wunderground v.1.15,2013-04-27 11:41:00,
2013-04-27 06:46:00,50.1,49.3,30.05,ENE,60,0.0,0.0,97,0.00,,,0.50,Wunderground v.1.15,2013-04-27 11:46:00,
2013-04-27 06:51:00,50.1,49.3,30.05,ESE,112,2.0,2.0,97,0.00,,,0.50,Wunderground v.1.15,2013-04-27 11:51:00,
2013-04-27 06:56:00,50.2,49.4,30.04,ESE,110,3.0,4.0,97,0.00,,,0.50,Wunderground v.1.15,2013-04-27 11:56:00,
2013-04-27 07:01:00,50.2,49.4,30.04,ESE,113,2.0,4.0,97,0.00,,,0.50,Wunderground v.1.15,2013-04-27 12:01:00,
2013-04-27 07:06:00,50.3,49.5,30.04,East,101,2.0,4.0,97,0.00,,,0.50,Wunderground v.1.15,2013-04-27 12:06:00,
2013-04-27 07:11:00,50.3,49.5,30.05,NE,47,1.0,1.0,97,0.00,,,0.50,Wunderground v.1.15,2013-04-27 12:11:00,
2013-04-27 07:16:00,50.2,49.4,30.04,NE,47,0.0,1.0,97,0.00,,,0.50,Wunderground v.1.15,2013-04-27 12:16:00,
2013-04-27 07:21:00,50.3,49.5,30.03,ENE,65,1.0,3.0,97,0.00,,,0.50,Wunderground v.1.15,2013-04-27 12:21:00,
2013-04-27 07:26:00,50.4,49.6,30.05,ENE,65,0.0,3.0,97,0.00,,,0.50,Wunderground v.1.15,2013-04-27 12:26:00,
2013-04-27 07:31:00,50.4,49.6,30.05,ENE,65,0.0,0.0,97,0.00,,,0.50,Wunderground v.1.15,2013-04-27 12:31:00,
2013-04-27 07:36:00,50.5,49.7,30.05,NE,41,0.0,0.0,97,0.00,,,0.50,Wunderground v.1.15,2013-04-27 12:36:00,
2013-04-27 07:41:00,50.6,49.8,30.04,ENE,78,0.0,0.0,97,0.00,,,0.50,Wunderground v.1.15,2013-04-27 12:41:00,
2013-04-27 07:46:00,50.7,49.9,30.04,ESE,110,0.0,1.0,97,0.00,,,0.50,Wunderground v.1.15,2013-04-27 12:46:00,
2013-04-27 07:51:00,50.7,49.9,30.03,East,90,2.0,3.0,97,0.00,,,0.51,Wunderground v.1.15,2013-04-27 12:51:00,
2013-04-27 07:56:00,50.7,49.9,30.03,East,90,1.0,3.0,97,0.00,,,0.51,Wunderground v.1.15,2013-04-27 12:56:00,
2013-04-27 08:01:00,50.8,50.0,30.03,East,79,0.0,1.0,97,0.00,,,0.51,Wunderground v.1.15,2013-04-27 13:01:00,
2013-04-27 08:06:00,50.8,50.0,30.03,NE,56,1.0,2.0,97,0.00,,,0.51,Wunderground v.1.15,2013-04-27 13:06:00,
2013-04-27 08:11:00,51.0,50.2,30.03,NNE,22,0.0,1.0,97,0.00,,,0.51,Wunderground v.1.15,2013-04-27 13:11:00,
2013-04-27 08:16:00,51.1,50.3,30.03,WSW,256,0.0,1.0,97,0.00,,,0.51,Wunderground v.1.15,2013-04-27 13:16:00,
2013-04-27 08:21:00,51.4,50.6,30.03,NNW,330,0.0,1.0,97,0.00,,,0.51,Wunderground v.1.15,2013-04-27 13:21:00,
2013-04-27 08:26:00,51.5,50.7,30.04,North,11,0.0,2.0,97,0.00,,,0.51,Wunderground v.1.15,2013-04-27 13:26:00,
2013-04-27 08:31:00,51.7,50.9,30.04,ENE,66,2.0,2.0,97,0.00,,,0.51,Wunderground v.1.15,2013-04-27 13:31:00,
2013-04-27 08:36:00,51.6,50.5,30.04,NE,41,0.0,3.0,96,0.00,,,0.51,Wunderground v.1.15,2013-04-27 13:36:00,
2013-04-27 08:41:00,51.4,50.3,30.05,NE,55,1.0,3.0,96,0.00,,,0.51,Wunderground v.1.15,2013-04-27 13:41:00,
2013-04-27 08:48:00,51.5,50.7,30.05,NNE,27,0.0,3.0,97,0.00,,,0.51,Wunderground v.1.15,2013-04-27 13:48:00,
2013-04-27 08:53:00,51.5,50.7,30.04,ENE,73,2.0,2.0,97,0.00,,,0.51,Wunderground v.1.15,2013-04-27 13:53:00,
2013-04-27 08:58:00,51.5,50.7,30.03,East,81,2.0,4.0,97,0.00,,,0.51,Wunderground v.1.15,2013-04-27 13:58:00,
2013-04-27 09:03:00,51.5,50.7,30.02,ENE,66,2.0,5.0,97,0.00,,,0.51,Wunderground v.1.15,2013-04-27 14:03:00,
2013-04-27 09:08:00,51.5,50.7,30.03,East,89,1.0,5.0,97,0.00,,,0.51,Wunderground v.1.15,2013-04-27 14:08:00,
2013-04-27 09:13:00,51.6,50.8,30.03,ESE,115,1.0,2.0,97,0.00,,,0.51,Wunderground v.1.15,2013-04-27 14:13:00,
2013-04-27 09:18:00,51.5,50.4,30.03,ENE,63,1.0,4.0,96,0.00,,,0.51,Wunderground v.1.15,2013-04-27 14:18:00,
2013-04-27 09:23:00,51.6,50.8,30.03,East,89,0.0,1.0,97,0.00,,,0.51,Wunderground v.1.15,2013-04-27 14:23:00,
2013-04-27 09:28:00,51.8,51.0,30.02,East,87,4.0,4.0,97,0.00,,,0.51,Wunderground v.1.15,2013-04-27 14:28:00,
2013-04-27 09:33:00,51.8,51.0,30.03,East,86,2.0,6.0,97,0.00,,,0.51,Wunderground v.1.15,2013-04-27 14:33:00,
2013-04-27 09:38:00,51.8,51.0,30.03,East,95,2.0,7.0,97,0.00,,,0.51,Wunderground v.1.15,2013-04-27 14:38:00,
2013-04-27 09:43:00,51.8,50.7,30.03,ENE,70,2.0,3.0,96,0.00,,,0.51,Wunderground v.1.15,2013-04-27 14:43:00,
2013-04-27 09:48:00,51.8,51.0,30.03,East,98,2.0,3.0,97,0.00,,,0.51,Wunderground v.1.15,2013-04-27 14:48:00,
2013-04-27 09:53:00,51.9,51.1,30.03,East,87,1.0,2.0,97,0.00,,,0.51,Wunderground v.1.15,2013-04-27 14:53:00,
2013-04-27 09:58:00,52.0,51.2,30.03,East,95,1.0,3.0,97,0.00,,,0.51,Wunderground v.1.15,2013-04-27 14:58:00,
2013-04-27 10:03:00,51.8,50.7,30.03,ENE,78,1.0,4.0,96,0.00,,,0.51,Wunderground v.1.15,2013-04-27 15:03:00,
2013-04-27 10:08:00,51.8,50.7,30.03,East,94,1.0,4.0,96,0.00,,,0.51,Wunderground v.1.15,2013-04-27 15:08:00,
2013-04-27 10:13:00,51.9,50.8,30.03,ESE,104,1.0,4.0,96,0.00,,,0.51,Wunderground v.1.15,2013-04-27 15:13:00,
2013-04-27 10:18:00,51.9,50.8,30.03,East,97,1.0,4.0,96,0.00,,,0.51,Wunderground v.1.15,2013-04-27 15:18:00,
2013-04-27 10:23:00,52.0,50.9,30.03,NE,46,0.0,2.0,96,0.00,,,0.51,Wunderground v.1.15,2013-04-27 15:23:00,
2013-04-27 10:28:00,52.0,50.9,30.04,NE,51,2.0,2.0,96,0.00,,,0.52,Wunderground v.1.15,2013-04-27 15:28:00,
2013-04-27 10:33:00,52.0,50.9,30.04,East,83,2.0,2.0,96,0.77,,,0.55,Wunderground v.1.15,2013-04-27 15:33:00,
2013-04-27 10:38:00,52.0,50.9,30.03,East,97,0.0,2.0,96,0.16,,,0.57,Wunderground v.1.15,2013-04-27 15:38:00,
2013-04-27 10:43:00,52.2,51.4,30.03,NE,53,2.0,2.0,97,0.12,,,0.58,Wunderground v.1.15,2013-04-27 15:43:00,
2013-04-27 10:48:00,52.3,51.5,30.04,ENE,71,0.0,2.0,97,0.12,,,0.59,Wunderground v.1.15,2013-04-27 15:48:00,
2013-04-27 10:53:00,52.4,51.6,30.04,ESE,113,0.0,2.0,97,0.06,,,0.59,Wunderground v.1.15,2013-04-27 15:53:00,
2013-04-27 10:58:00,52.4,51.6,30.04,East,96,0.0,2.0,97,0.04,,,0.59,Wunderground v.1.15,2013-04-27 15:58:00,
2013-04-27 11:03:00,52.3,51.2,30.03,NE,40,2.0,3.0,96,0.00,,,0.59,Wunderground v.1.15,2013-04-27 16:03:00,
2013-04-27 11:08:00,52.2,51.1,30.04,ESE,105,1.0,4.0,96,0.00,,,0.59,Wunderground v.1.15,2013-04-27 16:08:00,
2013-04-27 11:13:00,52.3,51.2,30.04,NE,50,3.0,3.0,96,0.00,,,0.60,Wunderground v.1.15,2013-04-27 16:13:00,
2013-04-27 11:18:00,52.3,51.2,30.03,ENE,69,2.0,4.0,96,0.00,,,0.60,Wunderground v.1.15,2013-04-27 16:18:00,
2013-04-27 11:23:00,52.4,51.3,30.04,East,91,1.0,3.0,96,0.00,,,0.60,Wunderground v.1.15,2013-04-27 16:23:00,
2013-04-27 11:28:00,52.2,51.1,30.04,ENE,71,1.0,5.0,96,0.00,,,0.60,Wunderground v.1.15,2013-04-27 16:28:00,
2013-04-27 11:33:00,52.3,51.2,30.04,ENE,62,1.0,3.0,96,0.00,,,0.60,Wunderground v.1.15,2013-04-27 16:33:00,
2013-04-27 11:38:00,52.3,51.2,30.04,East,94,1.0,3.0,96,0.00,,,0.60,Wunderground v.1.15,2013-04-27 16:38:00,
2013-04-27 11:43:00,52.5,51.4,30.04,East,79,2.0,2.0,96,0.00,,,0.60,Wunderground v.1.15,2013-04-27 16:43:00,
2013-04-27 11:48:00,52.3,51.2,30.04,ENE,58,3.0,4.0,96,0.00,,,0.60,Wunderground v.1.15,2013-04-27 16:48:00,
2013-04-27 11:53:00,52.4,51.3,30.04,ENE,69,1.0,3.0,96,0.00,,,0.60,Wunderground v.1.15,2013-04-27 16:53:00,
2013-04-27 11:58:00,52.4,51.3,30.04,East,83,1.0,4.0,96,0.00,,,0.60,Wunderground v.1.15,2013-04-27 16:58:00,
2013-04-27 12:03:00,52.4,51.3,30.04,ENE,76,1.0,3.0,96,0.00,,,0.60,Wunderground v.1.15,2013-04-27 17:03:00,
2013-04-27 12:08:00,52.6,51.5,30.04,East,98,0.0,3.0,96,0.00,,,0.60,Wunderground v.1.15,2013-04-27 17:08:00,
2013-04-27 12:13:00,52.8,51.7,30.03,ENE,65,3.0,3.0,96,0.00,,,0.60,Wunderground v.1.15,2013-04-27 17:13:00,
2013-04-27 12:18:00,52.8,51.7,30.03,NE,47,1.0,3.0,96,0.00,,,0.60,Wunderground v.1.15,2013-04-27 17:18:00,
2013-04-27 12:23:00,53.0,51.9,30.03,NE,46,1.0,1.0,96,0.00,,,0.60,Wunderground v.1.15,2013-04-27 17:23:00,
2013-04-27 12:28:00,53.0,51.9,30.03,NNE,20,1.0,2.0,96,0.00,,,0.60,Wunderground v.1.15,2013-04-27 17:28:00,
2013-04-27 12:33:00,53.0,51.9,30.03,NNE,23,1.0,2.0,96,0.00,,,0.60,Wunderground v.1.15,2013-04-27 17:33:00,
2013-04-27 12:38:00,52.9,51.5,30.03,ENE,75,0.0,2.0,95,0.00,,,0.60,Wunderground v.1.15,2013-04-27 17:38:00,
2013-04-27 12:43:00,53.0,51.9,30.04,NE,51,0.0,1.0,96,0.00,,,0.60,Wunderground v.1.15,2013-04-27 17:43:00,
2013-04-27 12:48:00,53.1,52.0,30.03,NE,51,0.0,1.0,96,0.00,,,0.60,Wunderground v.1.15,2013-04-27 17:48:00,
2013-04-27 12:53:00,53.0,51.9,30.03,NE,53,1.0,2.0,96,0.00,,,0.60,Wunderground v.1.15,2013-04-27 17:53:00,
2013-04-27 12:58:00,53.2,52.1,30.03,NE,53,0.0,2.0,96,0.00,,,0.60,Wunderground v.1.15,2013-04-27 17:58:00,
2013-04-27 13:03:00,53.3,52.2,30.03,NE,49,0.0,0.0,96,0.00,,,0.60,Wunderground v.1.15,2013-04-27 18:03:00,
2013-04-27 13:08:00,53.4,52.3,30.03,NNE,27,1.0,1.0,96,0.00,,,0.60,Wunderground v.1.15,2013-04-27 18:08:00,
2013-04-27 13:13:00,53.5,52.4,30.03,NNE,17,0.0,1.0,96,0.00,,,0.60,Wunderground v.1.15,2013-04-27 18:13:00,
2013-04-27 13:18:00,53.5,52.1,30.03,NNE,25,0.0,2.0,95,0.00,,,0.60,Wunderground v.1.15,2013-04-27 18:18:00,
2013-04-27 13:23:00,53.5,52.4,30.03,NNE,25,0.0,1.0,96,0.00,,,0.60,Wunderground v.1.15,2013-04-27 18:23:00,
2013-04-27 13:28:00,53.7,52.6,30.02,NNE,25,0.0,1.0,96,0.00,,,0.60,Wunderground v.1.15,2013-04-27 18:28:00,
2013-04-27 13:33:00,53.9,52.8,30.02,NNE,30,1.0,2.0,96,0.00,,,0.60,Wunderground v.1.15,2013-04-27 18:33:00,
2013-04-27 13:38:00,54.2,53.1,30.02,NNE,33,1.0,2.0,96,0.00,,,0.60,Wunderground v.1.15,2013-04-27 18:38:00,
2013-04-27 13:43:00,54.4,53.3,30.02,NNE,20,1.0,2.0,96,0.00,,,0.60,Wunderground v.1.15,2013-04-27 18:43:00,
2013-04-27 13:48:00,54.2,52.8,30.02,NNE,20,1.0,2.0,95,0.00,,,0.60,Wunderground v.1.15,2013-04-27 18:48:00,
2013-04-27 13:53:00,53.9,52.5,30.02,NW,316,1.0,2.0,95,0.00,,,0.60,Wunderground v.1.15,2013-04-27 18:53:00,
2013-04-27 13:58:00,54.1,52.7,30.02,NE,34,0.0,2.0,95,0.00,,,0.60,Wunderground v.1.15,2013-04-27 18:58:00,
2013-04-27 14:03:00,54.4,53.0,30.02,NNE,33,0.0,1.0,95,0.00,,,0.60,Wunderground v.1.15,2013-04-27 19:03:00,
2013-04-27 14:08:00,54.7,53.3,30.02,North,4,0.0,2.0,95,0.00,,,0.60,Wunderground v.1.15,2013-04-27 19:08:00,
2013-04-27 14:13:00,55.0,53.6,30.02,ENE,58,0.0,1.0,95,0.00,,,0.60,Wunderground v.1.15,2013-04-27 19:13:00,
2013-04-27 14:18:00,55.3,53.9,30.02,ENE,71,0.0,1.0,95,0.00,,,0.60,Wunderground v.1.15,2013-04-27 19:18:00,
2013-04-27 14:23:00,55.6,53.9,30.02,NE,44,0.0,1.0,94,0.00,,,0.60,Wunderground v.1.15,2013-04-27 19:23:00,
2013-04-27 14:28:00,55.8,54.1,30.02,NNE,13,0.0,1.0,94,0.00,,,0.60,Wunderground v.1.15,2013-04-27 19:28:00,
2013-04-27 14:33:00,55.9,53.9,30.02,WSW,258,0.0,1.0,93,0.00,,,0.60,Wunderground v.1.15,2013-04-27 19:33:00,
2013-04-27 14:38:00,55.9,53.9,30.01,NW,304,0.0,1.0,93,0.00,,,0.60,Wunderground v.1.15,2013-04-27 19:38:00,
2013-04-27 14:43:00,55.8,54.1,30.01,NNW,345,0.0,0.0,94,0.00,,,0.60,Wunderground v.1.15,2013-04-27 19:43:00,
2013-04-27 14:48:00,55.9,53.9,30.01,NNW,345,0.0,0.0,93,0.00,,,0.60,Wunderground v.1.15,2013-04-27 19:48:00,
2013-04-27 14:53:00,55.9,53.9,30.01,North,6,1.0,1.0,93,0.00,,,0.60,Wunderground v.1.15,2013-04-27 19:53:00,
2013-04-27 14:58:00,55.9,53.9,30.01,NE,35,1.0,2.0,93,0.00,,,0.60,Wunderground v.1.15,2013-04-27 19:58:00,
2013-04-27 15:03:00,56.2,54.2,30.01,NNE,14,1.0,2.0,93,0.00,,,0.60,Wunderground v.1.15,2013-04-27 20:03:00,
2013-04-27 15:08:00,56.2,54.2,30.01,NNE,20,1.0,2.0,93,0.00,,,0.60,Wunderground v.1.15,2013-04-27 20:08:00,
2013-04-27 15:13:00,56.7,54.7,30.01,NNW,329,1.0,2.0,93,0.00,,,0.60,Wunderground v.1.15,2013-04-27 20:13:00,
2013-04-27 15:18:00,57.2,54.9,30.01,NNW,332,0.0,2.0,92,0.00,,,0.60,Wunderground v.1.15,2013-04-27 20:18:00,
2013-04-27 15:23:00,57.3,55.0,30.00,WNW,297,0.0,2.0,92,0.00,,,0.60,Wunderground v.1.15,2013-04-27 20:23:00,
2013-04-27 15:28:00,57.5,55.2,30.00,WNW,297,0.0,2.0,92,0.00,,,0.60,Wunderground v.1.15,2013-04-27 20:28:00,
2013-04-27 15:33:00,57.6,55.3,30.00,SW,226,0.0,2.0,92,0.00,,,0.60,Wunderground v.1.15,2013-04-27 20:33:00,
2013-04-27 15:38:00,57.6,55.3,30.00,WSW,238,1.0,3.0,92,0.00,,,0.60,Wunderground v.1.15,2013-04-27 20:38:00,
2013-04-27 15:43:00,57.4,55.4,30.00,WSW,258,1.0,1.0,93,0.00,,,0.60,Wunderground v.1.15,2013-04-27 20:43:00,
2013-04-27 15:48:00,57.4,55.4,30.00,West,270,2.0,2.0,93,0.00,,,0.60,Wunderground v.1.15,2013-04-27 20:48:00,
2013-04-27 15:53:00,57.1,55.1,30.00,West,280,2.0,3.0,93,0.00,,,0.60,Wunderground v.1.15,2013-04-27 20:53:00,
2013-04-27 15:58:00,57.1,55.4,30.00,SW,234,1.0,3.0,94,0.00,,,0.60,Wunderground v.1.15,2013-04-27 20:58:00,
2013-04-27 16:03:00,57.1,55.4,29.99,WNW,289,2.0,2.0,94,0.00,,,0.60,Wunderground v.1.15,2013-04-27 21:03:00,
2013-04-27 16:08:00,57.3,55.9,29.99,West,263,1.0,2.0,95,0.00,,,0.60,Wunderground v.1.15,2013-04-27 21:08:00,
2013-04-27 16:13:00,57.4,56.0,29.99,WSW,245,1.0,2.0,95,0.00,,,0.60,Wunderground v.1.15,2013-04-27 21:13:00,
2013-04-27 16:18:00,57.5,55.8,29.99,West,276,1.0,4.0,94,0.00,,,0.60,Wunderground v.1.15,2013-04-27 21:18:00,
2013-04-27 16:23:00,57.5,55.8,29.99,West,269,2.0,4.0,94,0.00,,,0.60,Wunderground v.1.15,2013-04-27 21:23:00,
2013-04-27 16:28:00,57.4,55.4,29.99,WNW,285,2.0,5.0,93,0.00,,,0.60,Wunderground v.1.15,2013-04-27 21:28:00,
2013-04-27 16:33:00,57.3,55.3,29.99,West,274,2.0,5.0,93,0.00,,,0.60,Wunderground v.1.15,2013-04-27 21:33:00,
2013-04-27 16:38:00,57.3,55.3,29.99,WNW,297,2.0,5.0,93,0.00,,,0.60,Wunderground v.1.15,2013-04-27 21:38:00,
2013-04-27 16:43:00,57.3,55.0,29.99,West,278,3.0,6.0,92,0.00,,,0.60,Wunderground v.1.15,2013-04-27 21:43:00,
2013-04-27 16:48:00,57.1,54.5,29.99,WNW,289,3.0,7.0,91,0.00,,,0.60,Wunderground v.1.15,2013-04-27 21:48:00,
2013-04-27 16:53:00,56.9,54.3,29.99,SW,231,6.0,7.0,91,0.00,,,0.60,Wunderground v.1.15,2013-04-27 21:53:00,
2013-04-27 16:58:00,56.7,54.4,29.99,NW,314,3.0,7.0,92,0.00,,,0.60,Wunderground v.1.15,2013-04-27 21:58:00,
2013-04-27 17:03:00,56.4,54.1,29.99,West,278,1.0,6.0,92,0.00,,,0.60,Wunderground v.1.15,2013-04-27 22:03:00,
2013-04-27 17:08:00,56.2,53.9,29.99,WNW,283,4.0,6.0,92,0.00,,,0.60,Wunderground v.1.15,2013-04-27 22:08:00,
2013-04-27 17:13:00,55.9,53.6,29.99,West,276,2.0,8.0,92,0.00,,,0.60,Wunderground v.1.15,2013-04-27 22:13:00,
2013-04-27 17:18:00,55.7,53.4,30.00,WNW,301,4.0,8.0,92,0.00,,,0.60,Wunderground v.1.15,2013-04-27 22:18:00,
2013-04-27 17:23:00,55.6,53.3,30.00,NNW,345,0.0,8.0,92,0.00,,,0.60,Wunderground v.1.15,2013-04-27 22:23:00,
2013-04-27 17:28:00,55.5,53.5,29.99,West,273,4.0,8.0,93,0.00,,,0.60,Wunderground v.1.15,2013-04-27 22:28:00,
2013-04-27 17:33:00,55.3,53.3,30.00,North,9,1.0,4.0,93,0.00,,,0.60,Wunderground v.1.15,2013-04-27 22:33:00,
2013-04-27 17:38:00,55.1,53.1,30.00,North,354,2.0,5.0,93,0.00,,,0.60,Wunderground v.1.15,2013-04-27 22:38:00,
2013-04-27 17:43:00,54.9,52.9,30.00,WNW,297,1.0,5.0,93,0.00,,,0.60,Wunderground v.1.15,2013-04-27 22:43:00,
2013-04-27 17:48:00,54.8,52.8,30.00,NNW,342,2.0,6.0,93,0.00,,,0.60,Wunderground v.1.15,2013-04-27 22:48:00,
2013-04-27 17:53:00,54.7,52.7,30.00,NW,316,3.0,7.0,93,0.00,,,0.60,Wunderground v.1.15,2013-04-27 22:53:00,
2013-04-27 17:58:00,54.6,52.6,30.00,NNW,335,3.0,7.0,93,0.00,,,0.60,Wunderground v.1.15,2013-04-27 22:58:00,
2013-04-27 18:03:00,54.5,52.8,30.00,NNW,330,2.0,5.0,94,0.00,,,0.60,Wunderground v.1.15,2013-04-27 23:03:00,
2013-04-27 18:08:00,54.4,52.4,30.00,WNW,297,2.0,5.0,93,0.00,,,0.60,Wunderground v.1.15,2013-04-27 23:08:00,
2013-04-27 18:13:00,54.3,52.3,30.00,NW,304,1.0,6.0,93,0.00,,,0.60,Wunderground v.1.15,2013-04-27 23:13:00,
2013-04-27 18:18:00,54.2,52.2,30.00,WNW,300,0.0,6.0,93,0.00,,,0.60,Wunderground v.1.15,2013-04-27 23:18:00,
2013-04-27 18:23:00,54.1,52.1,30.00,NW,315,2.0,4.0,93,0.00,,,0.60,Wunderground v.1.15,2013-04-27 23:23:00,
2013-04-27 18:28:00,54.1,52.1,30.00,NW,321,0.0,6.0,93,0.00,,,0.60,Wunderground v.1.15,2013-04-27 23:28:00,
2013-04-27 18:33:00,54.0,52.0,30.00,NW,315,2.0,3.0,93,0.00,,,0.60,Wunderground v.1.15,2013-04-27 23:33:00,
2013-04-27 18:38:00,54.0,52.0,30.00,NNW,333,2.0,3.0,93,0.00,,,0.60,Wunderground v.1.15,2013-04-27 23:38:00,
2013-04-27 18:43:00,53.9,51.9,30.00,West,277,2.0,6.0,93,0.00,,,0.60,Wunderground v.1.15,2013-04-27 23:43:00,
2013-04-27 18:48:00,53.7,51.7,30.00,NW,307,1.0,7.0,93,0.00,,,0.60,Wunderground v.1.15,2013-04-27 23:48:00,
2013-04-27 18:53:00,53.6,51.6,30.00,NNW,330,0.0,4.0,93,0.00,,,0.60,Wunderground v.1.15,2013-04-27 23:53:00,
2013-04-27 18:58:00,53.5,51.5,30.00,NW,311,2.0,4.0,93,0.00,,,0.60,Wunderground v.1.15,2013-04-27 23:58:00,
2013-04-27 19:03:00,53.5,51.5,30.00,WNW,300,2.0,3.0,93,0.00,,,0.60,Wunderground v.1.15,2013-04-28 00:03:00,
2013-04-27 19:08:00,53.3,51.3,30.00,North,359,2.0,5.0,93,0.00,,,0.60,Wunderground v.1.15,2013-04-28 00:08:00,
2013-04-27 19:13:00,53.2,51.5,30.00,NNW,336,2.0,4.0,94,0.00,,,0.60,Wunderground v.1.15,2013-04-28 00:13:00,
2013-04-27 19:18:00,53.0,51.3,30.00,NW,326,2.0,5.0,94,0.00,,,0.60,Wunderground v.1.15,2013-04-28 00:18:00,
2013-04-27 19:23:00,52.9,51.2,30.00,NNW,333,1.0,3.0,94,0.00,,,0.60,Wunderground v.1.15,2013-04-28 00:23:00,
2013-04-27 19:28:00,52.9,51.2,30.00,WNW,283,2.0,3.0,94,0.00,,,0.60,Wunderground v.1.15,2013-04-28 00:28:00,
2013-04-27 19:33:00,52.8,51.1,30.00,NW,306,3.0,5.0,94,0.00,,,0.60,Wunderground v.1.15,2013-04-28 00:33:00,
2013-04-27 19:38:00,52.7,51.0,30.00,NNW,338,2.0,5.0,94,0.00,,,0.60,Wunderground v.1.15,2013-04-28 00:38:00,
2013-04-27 19:43:00,52.6,50.9,30.00,NW,319,1.0,4.0,94,0.00,,,0.60,Wunderground v.1.15,2013-04-28 00:43:00,
2013-04-27 19:48:00,52.6,50.9,30.00,NNW,329,0.0,4.0,94,0.00,,,0.60,Wunderground v.1.15,2013-04-28 00:48:00,
2013-04-27 19:53:00,52.5,50.8,30.00,West,275,3.0,3.0,94,0.00,,,0.60,Wunderground v.1.15,2013-04-28 00:53:00,
2013-04-27 19:58:00,52.4,50.7,30.00,NW,304,2.0,4.0,94,0.00,,,0.60,Wunderground v.1.15,2013-04-28 00:58:00,
2013-04-27 20:03:00,52.4,50.7,30.00,NW,316,1.0,6.0,94,0.00,,,0.60,Wunderground v.1.15,2013-04-28 01:03:00,
2013-04-27 20:08:00,52.2,50.5,30.00,NW,316,1.0,6.0,94,0.00,,,0.60,Wunderground v.1.15,2013-04-28 01:08:00,
2013-04-27 20:13:00,52.2,50.5,30.00,West,273,4.0,5.0,94,0.00,,,0.60,Wunderground v.1.15,2013-04-28 01:13:00,
2013-04-27 20:18:00,52.1,50.4,30.00,NNW,332,1.0,6.0,94,0.00,,,0.60,Wunderground v.1.15,2013-04-28 01:18:00,
2013-04-27 20:23:00,52.0,50.3,30.00,NW,321,1.0,3.0,94,0.00,,,0.60,Wunderground v.1.15,2013-04-28 01:23:00,
2013-04-27 20:28:00,52.0,50.3,30.00,West,269,0.0,3.0,94,0.00,,,0.60,Wunderground v.1.15,2013-04-28 01:28:00,
2013-04-27 20:33:00,52.0,50.3,30.00,WSW,256,1.0,4.0,94,0.00,,,0.60,Wunderground v.1.15,2013-04-28 01:33:00,
2013-04-27 20:38:00,51.9,49.9,30.00,NW,319,0.0,4.0,93,0.00,,,0.60,Wunderground v.1.15,2013-04-28 01:38:00,
2013-04-27 20:43:00,51.9,50.2,30.00,WSW,245,0.0,1.0,94,0.00,,,0.60,Wunderground v.1.15,2013-04-28 01:43:00,
2013-04-27 20:48:00,51.9,49.9,30.01,North,3,1.0,6.0,93,0.00,,,0.60,Wunderground v.1.15,2013-04-28 01:48:00,
2013-04-27 20:53:00,51.8,50.1,30.01,NNW,330,0.0,6.0,94,0.00,,,0.60,Wunderground v.1.15,2013-04-28 01:53:00,
2013-04-27 20:58:00,51.8,50.1,30.01,NW,311,1.0,6.0,94,0.00,,,0.60,Wunderground v.1.15,2013-04-28 01:58:00,
2013-04-27 21:03:00,51.8,50.1,30.01,WNW,290,1.0,3.0,94,0.00,,,0.60,Wunderground v.1.15,2013-04-28 02:03:00,
2013-04-27 21:08:00,51.7,50.0,30.01,WNW,297,1.0,3.0,94,0.00,,,0.60,Wunderground v.1.15,2013-04-28 02:08:00,
2013-04-27 21:13:00,51.7,50.0,30.01,WSW,250,0.0,2.0,94,0.00,,,0.60,Wunderground v.1.15,2013-04-28 02:13:00,
2013-04-27 21:18:00,51.7,50.0,30.01,West,277,1.0,2.0,94,0.00,,,0.60,Wunderground v.1.15,2013-04-28 02:18:00,
2013-04-27 21:23:00,51.7,50.0,30.01,West,263,0.0,1.0,94,0.00,,,0.60,Wunderground v.1.15,2013-04-28 02:23:00,
2013-04-27 21:28:00,51.7,50.0,30.01,NW,314,1.0,1.0,94,0.00,,,0.60,Wunderground v.1.15,2013-04-28 02:28:00,
2013-04-27 21:33:00,51.6,49.9,30.02,North,5,0.0,3.0,94,0.00,,,0.60,Wunderground v.1.15,2013-04-28 02:33:00,
2013-04-27 21:38:00,51.6,49.9,30.02,West,270,0.0,3.0,94,0.00,,,0.60,Wunderground v.1.15,2013-04-28 02:38:00,
2013-04-27 21:43:00,51.6,49.9,30.02,West,281,0.0,2.0,94,0.00,,,0.60,Wunderground v.1.15,2013-04-28 02:43:00,
2013-04-27 21:48:00,51.5,49.8,30.02,WNW,287,0.0,2.0,94,0.00,,,0.60,Wunderground v.1.15,2013-04-28 02:48:00,
2013-04-27 21:53:00,51.5,50.1,30.02,WNW,287,0.0,1.0,95,0.00,,,0.60,Wunderground v.1.15,2013-04-28 02:53:00,
2013-04-27 21:58:00,51.5,50.1,30.02,WNW,284,0.0,1.0,95,0.00,,,0.60,Wunderground v.1.15,2013-04-28 02:58:00,
2013-04-27 22:03:00,51.4,50.0,30.02,WNW,290,0.0,1.0,95,0.00,,,0.60,Wunderground v.1.15,2013-04-28 03:03:00,
2013-04-27 22:08:00,51.4,50.0,30.02,WNW,282,1.0,1.0,95,0.00,,,0.60,Wunderground v.1.15,2013-04-28 03:08:00,
2013-04-27 22:13:00,51.3,49.9,30.01,WSW,255,0.0,1.0,95,0.00,,,0.60,Wunderground v.1.15,2013-04-28 03:13:00,
2013-04-27 22:18:00,51.3,49.9,30.01,WSW,253,0.0,1.0,95,0.00,,,0.60,Wunderground v.1.15,2013-04-28 03:18:00,
2013-04-27 22:23:00,51.2,49.8,30.01,West,276,0.0,1.0,95,0.00,,,0.60,Wunderground v.1.15,2013-04-28 03:23:00,
2013-04-27 22:28:00,51.2,49.8,30.01,West,275,0.0,1.0,95,0.00,,,0.60,Wunderground v.1.15,2013-04-28 03:28:00,
2013-04-27 22:33:00,51.2,49.8,30.01,West,275,0.0,0.0,95,0.00,,,0.60,Wunderground v.1.15,2013-04-28 03:33:00,
2013-04-27 22:38:00,51.2,49.8,30.01,NW,311,2.0,2.0,95,0.00,,,0.60,Wunderground v.1.15,2013-04-28 03:38:00,
2013-04-27 22:43:00,51.2,49.8,30.01,NW,312,0.0,2.0,95,0.00,,,0.60,Wunderground v.1.15,2013-04-28 03:43:00,
2013-04-27 22:48:00,51.2,49.8,30.01,WNW,284,1.0,3.0,95,0.00,,,0.60,Wunderground v.1.15,2013-04-28 03:48:00,
2013-04-27 22:53:00,51.3,49.6,30.01,NW,310,1.0,4.0,94,0.00,,,0.60,Wunderground v.1.15,2013-04-28 03:53:00,
2013-04-27 22:58:00,51.3,49.6,30.01,West,263,1.0,4.0,94,0.00,,,0.60,Wunderground v.1.15,2013-04-28 03:58:00,
2013-04-27 23:01:00,51.3,49.6,30.01,WNW,297,3.0,3.0,94,0.00,,,0.60,Wunderground v.1.15,2013-04-28 04:01:00,
2013-04-27 23:06:00,51.3,49.6,30.01,NNW,328,0.0,3.0,94,0.00,,,0.60,Wunderground v.1.15,2013-04-28 04:06:00,
2013-04-27 23:11:00,51.3,49.6,30.01,NW,309,0.0,2.0,94,0.00,,,0.60,Wunderground v.1.15,2013-04-28 04:11:00,
2013-04-27 23:16:00,51.3,49.6,30.01,WSW,256,3.0,3.0,94,0.00,,,0.60,Wunderground v.1.15,2013-04-28 04:16:00,
2013-04-27 23:21:00,51.3,49.6,30.01,NW,304,1.0,2.0,94,0.00,,,0.60,Wunderground v.1.15,2013-04-28 04:21:00,
2013-04-27 23:26:00,51.3,49.6,30.01,WNW,297,1.0,3.0,94,0.00,,,0.60,Wunderground v.1.15,2013-04-28 04:26:00,
2013-04-27 23:31:00,51.3,49.6,30.01,ENE,63,0.0,1.0,94,0.00,,,0.60,Wunderground v.1.15,2013-04-28 04:31:00,
2013-04-27 23:36:00,51.3,49.6,30.01,NNW,329,2.0,3.0,94,0.00,,,0.60,Wunderground v.1.15,2013-04-28 04:36:00,
2013-04-27 23:41:00,51.3,49.6,30.01,NNW,329,0.0,1.0,94,0.00,,,0.60,Wunderground v.1.15,2013-04-28 04:41:00,
2013-04-27 23:46:00,51.3,49.6,30.01,West,262,1.0,1.0,94,0.00,,,0.60,Wunderground v.1.15,2013-04-28 04:46:00,
2013-04-27 23:51:00,51.3,49.6,30.01,West,265,1.0,1.0,94,0.00,,,0.60,Wunderground v.1.15,2013-04-28 04:51:00,
2013-04-27 23:56:00,51.3,49.6,30.01,West,267,0.0,1.0,94,0.00,,,0.60,Wunderground v.1.15,2013-04-28 04:56:00,